Location: Kott?ru
(16.6209°N, 80.6208°E)
Time: 08:33:09
(UTC+00:00)

NOAA 15 - Visible Passes

Search period start: 16 September 2024 00:00
Search period end: 26 September 2024 00:00
Orbit: 794 x 811 km, 98.6° (Epoch: 15 September)

Date Brightness Start Highest point End Pass type
(mag) Time Alt. Az. Time Alt. Az. Time Alt. Az.
16 Sep 4.9 13:14:13 10° SE 13:19:08 43° ENE 13:24:03 10° N visible
16 Sep 7.5 14:56:37 10° WSW 14:58:48 13° W 15:01:00 10° WNW visible
17 Sep 5.7 12:49:30 10° ESE 12:53:27 22° ENE 12:57:24 10° NNE visible
17 Sep 6.6 14:28:38 10° SSW 14:32:55 26° W 14:37:13 10° NW visible
18 Sep 5.4 14:02:01 10° S 14:07:05 51° W 14:12:09 10° NNW visible
19 Sep 4.5 13:36:04 10° SSE 13:41:17 79° ENE 13:46:31 10° N visible
20 Sep 5.0 13:10:43 10° SE 13:15:33 39° ENE 13:20:22 10° N visible
20 Sep 7.4 14:52:33 10° SW 14:55:12 14° W 14:57:49 10° WNW visible
21 Sep 6.5 14:24:53 10° SSW 14:29:19 28° W 14:33:45 10° NW visible
22 Sep 5.2 13:58:22 10° S 14:03:28 57° W 14:08:35 10° NNW visible
23 Sep 4.5 13:32:29 10° SSE 13:37:41 72° ENE 13:42:52 10° N visible
24 Sep 5.1 13:07:12 10° SE 13:11:56 36° ENE 13:16:39 10° N visible
24 Sep 7.3 14:48:33 10° SW 14:51:33 15° W 14:54:34 10° WNW visible
25 Sep 6.3 14:21:07 10° SSW 14:25:40 31° W 14:30:14 10° NW visible
